Find Local Weather

World > North America > United States > Arizona

Prescott Valley, Arizona Regional Weather

Lat: 34.61N, Lon: 112.32W
Wx Zone: AZZ008
Feedback
Expires:201807180000;;638453
ASUS45 KPSR 172310
RWRAZ 

ARIZONA HOURLY REGIONAL WEATHER ROUNDUP
NATIONAL WEATHER SERVICE PHOENIX AZ
400 PM MST TUE JUL 17 2018

NOTE: FAIR INDICATES FEW OR NO CLOUDS BELOW 12,000 FEET WITH NO
SIGNIFICANT WEATHER AND/OR OBSTRUCTIONS TO VISIBILITY.


AZZ004>008-015-016-018-180000-
NORTH CENTRAL ARIZONA
  
CITY           SKY/WX    TMP DP  RH WIND       PRES   REMARKS
GRAND CANYON   CLOUDY    81  56  42 SW8       30.31S                  
WILLIAMS       CLOUDY    72  61  68 SE7       30.29F                  
PRESCOTT       PTSUNNY   87  57  35 SW3       30.18F                  
FLAGSTAFF      PTSUNNY   76  58  53 S13       30.33F                  
PAYSON         PTSUNNY   86  54  32 CALM      30.20F                  
PAGE           PTSUNNY   97  53  22 N7        30.06F                  
$$


SKY/WX - Weather  TMP - Temperature  DP - Dewpoint  RH - Relative Humidity
WIND - Wind Direction/Speed PRES - Barometric Pressure